Time,TemperatureF,DewpointF,PressureIn,WindDirection,WindDirectionDegrees,WindSpeedMPH,WindSpeedGustMPH,Humidity,HourlyPrecipIn,Conditions,Clouds,dailyrainin,SoftwareType,DateUTC
2013-01-15 00:04:00,34.8,26.0,30.27,NNE,23,3.5,3.5,70,0.00,-RA,,0.00,WeatherDisplay:10.37,2013-01-15 05:04:00,
2013-01-15 00:05:00,34.9,26.1,30.27,NNE,23,3.0,3.0,70,0.00,-RA,,0.00,WeatherDisplay:10.37,2013-01-15 05:05:00,
2013-01-15 00:06:00,34.8,26.0,30.27,East,85,6.9,6.9,70,0.00,-RA,,0.00,WeatherDisplay:10.37,2013-01-15 05:06:00,
2013-01-15 00:11:00,34.9,26.1,30.27,NNE,14,8.2,8.2,70,0.00,-RA,,0.00,WeatherDisplay:10.37,2013-01-15 05:11:00,
2013-01-15 00:16:00,34.7,26.3,30.27,ENE,62,2.4,2.4,71,0.00,-RA,,0.00,WeatherDisplay:10.37,2013-01-15 05:16:00,
2013-01-15 00:21:00,34.7,26.3,30.27,East,83,3.7,3.7,71,0.00,OVC,,0.00,WeatherDisplay:10.37,2013-01-15 05:21:00,
2013-01-15 00:26:00,34.8,26.4,30.27,NE,48,3.5,3.5,71,0.00,OVC,,0.00,WeatherDisplay:10.37,2013-01-15 05:26:00,
2013-01-15 00:31:00,34.4,26.0,30.26,North,353,4.6,4.6,71,0.00,OVC,,0.00,WeatherDisplay:10.37,2013-01-15 05:31:00,
2013-01-15 00:36:00,34.4,26.0,30.26,East,80,4.6,4.6,71,0.00,OVC,,0.00,WeatherDisplay:10.37,2013-01-15 05:36:00,
2013-01-15 00:41:00,34.5,26.1,30.26,East,99,6.9,6.9,71,0.00,OVC,,0.00,WeatherDisplay:10.37,2013-01-15 05:41:00,
2013-01-15 00:46:00,34.4,26.3,30.27,North,349,4.6,4.6,72,0.00,OVC,,0.00,WeatherDisplay:10.37,2013-01-15 05:46:00,
2013-01-15 00:51:00,34.3,25.6,30.29,NNE,24,5.0,5.2,70,0.00,OVC,,0.00,WeatherDisplay:10.37,2013-01-15 05:51:00,
2013-01-15 00:56:00,34.5,26.1,30.29,NW,319,4.6,4.6,71,0.00,OVC,,0.00,WeatherDisplay:10.37,2013-01-15 05:56:00,
2013-01-15 01:01:00,34.7,26.0,30.30,North,3,5.8,5.8,70,0.00,OVC,,0.00,WeatherDisplay:10.37,2013-01-15 06:01:00,
2013-01-15 01:06:00,34.3,25.9,30.28,NNW,336,7.5,7.5,71,0.00,OVC,,0.00,WeatherDisplay:10.37,2013-01-15 06:06:00,
2013-01-15 01:11:00,34.5,26.4,30.27,NNE,27,9.2,9.2,72,0.00,OVC,,0.00,WeatherDisplay:10.37,2013-01-15 06:11:00,
2013-01-15 01:16:00,34.6,27.2,30.26,NE,45,5.8,5.8,74,0.00,OVC,,0.00,WeatherDisplay:10.37,2013-01-15 06:16:00,
2013-01-15 01:21:00,34.0,27.6,30.28,NNE,20,5.8,5.8,77,0.00,OVC,,0.00,WeatherDisplay:10.37,2013-01-15 06:21:00,
2013-01-15 01:26:00,33.7,27.9,30.25,ESE,102,8.3,8.3,79,0.00,OVC,,0.00,WeatherDisplay:10.37,2013-01-15 06:26:00,
2013-01-15 01:31:00,33.6,28.1,30.28,NNE,18,6.9,6.9,80,0.00,OVC,,0.00,WeatherDisplay:10.37,2013-01-15 06:31:00,
2013-01-15 01:36:00,33.4,27.9,30.29,NE,41,3.5,3.5,80,0.00,OVC,,0.00,WeatherDisplay:10.37,2013-01-15 06:36:00,
2013-01-15 01:41:00,33.2,27.7,30.26,NE,41,5.8,5.8,80,0.00,OVC,,0.00,WeatherDisplay:10.37,2013-01-15 06:41:00,
2013-01-15 01:46:00,33.2,27.4,30.27,NNE,13,5.3,5.3,79,0.00,OVC,,0.00,WeatherDisplay:10.37,2013-01-15 06:46:00,
2013-01-15 01:51:00,33.0,27.5,30.27,ENE,65,5.9,5.9,80,0.00,OVC,,0.00,WeatherDisplay:10.37,2013-01-15 06:51:00,
2013-01-15 01:56:00,33.3,27.2,30.27,NNW,343,5.0,5.1,78,0.00,OVC,,0.00,WeatherDisplay:10.37,2013-01-15 06:56:00,
2013-01-15 02:01:00,33.4,27.3,30.26,ENE,65,3.1,3.1,78,0.00,OVC,,0.00,WeatherDisplay:10.37,2013-01-15 07:01:00,
2013-01-15 02:06:00,33.3,27.2,30.27,SE,131,0.0,0.0,78,0.00,OVC,,0.00,WeatherDisplay:10.37,2013-01-15 07:06:00,
2013-01-15 02:11:00,33.2,27.4,30.27,NNE,18,4.6,4.6,79,0.00,OVC,,0.00,WeatherDisplay:10.37,2013-01-15 07:11:00,
2013-01-15 02:16:00,33.2,27.1,30.26,NE,52,6.9,6.9,78,0.00,OVC,,0.00,WeatherDisplay:10.37,2013-01-15 07:16:00,
2013-01-15 02:21:00,33.3,27.2,30.27,ENE,62,3.5,3.5,78,0.00,BKN,,0.00,WeatherDisplay:10.37,2013-01-15 07:21:00,
2013-01-15 02:26:00,33.3,27.5,30.24,SE,138,2.3,2.3,79,0.00,BKN,,0.00,WeatherDisplay:10.37,2013-01-15 07:26:00,
2013-01-15 02:31:00,33.3,27.2,30.24,NW,323,3.5,3.5,78,0.00,BKN,,0.00,WeatherDisplay:10.37,2013-01-15 07:31:00,
2013-01-15 02:36:00,33.4,27.9,30.27,North,360,5.8,5.8,80,0.00,OVC,,0.00,WeatherDisplay:10.37,2013-01-15 07:36:00,
2013-01-15 02:41:00,33.4,27.0,30.26,ENE,78,4.6,4.6,77,0.00,OVC,,0.00,WeatherDisplay:10.37,2013-01-15 07:41:00,
2013-01-15 02:46:00,33.3,27.2,30.27,ENE,78,0.0,0.0,78,0.00,OVC,,0.00,WeatherDisplay:10.37,2013-01-15 07:46:00,
2013-01-15 02:51:00,33.4,27.0,30.24,East,92,0.0,0.0,77,0.00,OVC,,0.00,WeatherDisplay:10.37,2013-01-15 07:51:00,
2013-01-15 02:56:00,33.4,27.3,30.25,NNE,21,2.3,2.3,78,0.00,OVC,,0.00,WeatherDisplay:10.37,2013-01-15 07:56:00,
2013-01-15 03:01:00,33.2,27.4,30.27,North,3,4.6,4.6,79,0.00,OVC,,0.00,WeatherDisplay:10.37,2013-01-15 08:01:00,
2013-01-15 03:06:00,33.4,27.0,30.26,NNW,329,3.5,3.5,77,0.00,-RA,,0.00,WeatherDisplay:10.37,2013-01-15 08:06:00,
2013-01-15 03:11:00,33.5,26.8,30.25,NE,45,5.3,5.3,76,0.00,-RA,,0.00,WeatherDisplay:10.37,2013-01-15 08:11:00,
2013-01-15 03:16:00,33.3,27.2,30.26,WNW,292,4.6,4.6,78,0.00,-RA,,0.00,WeatherDisplay:10.37,2013-01-15 08:16:00,
2013-01-15 03:21:00,33.4,26.0,30.24,ENE,58,4.6,4.6,74,0.00,-RA,,0.00,WeatherDisplay:10.37,2013-01-15 08:21:00,
2013-01-15 03:26:00,33.3,26.6,30.25,NNE,30,3.0,3.0,76,0.00,-RA,,0.00,WeatherDisplay:10.37,2013-01-15 08:26:00,
2013-01-15 03:31:00,33.5,26.8,30.25,NNE,16,5.8,5.8,76,0.00,-RA,,0.00,WeatherDisplay:10.37,2013-01-15 08:31:00,
2013-01-15 03:36:00,33.4,26.4,30.24,NNE,20,5.8,5.8,75,0.00,-RA,,0.00,WeatherDisplay:10.37,2013-01-15 08:36:00,
2013-01-15 03:41:00,33.3,26.3,30.22,ENE,68,5.8,5.8,75,0.00,-RA,,0.00,WeatherDisplay:10.37,2013-01-15 08:41:00,
2013-01-15 03:46:00,33.2,26.5,30.23,NE,54,0.0,0.0,76,0.00,-RA,,0.00,WeatherDisplay:10.37,2013-01-15 08:46:00,
2013-01-15 03:51:00,33.5,27.1,30.25,NE,38,3.5,3.5,77,0.00,-RA,,0.00,WeatherDisplay:10.37,2013-01-15 08:51:00,
2013-01-15 03:56:00,33.6,26.9,30.23,North,8,0.0,0.0,76,0.00,-RA,,0.00,WeatherDisplay:10.37,2013-01-15 08:56:00,
2013-01-15 04:01:00,33.3,26.6,30.25,North,3,4.6,4.6,76,0.00,-RA,,0.00,WeatherDisplay:10.37,2013-01-15 09:01:00,
2013-01-15 04:06:00,33.3,26.3,30.25,NE,44,0.0,0.0,75,0.00,BKN,,0.00,WeatherDisplay:10.37,2013-01-15 09:06:00,
2013-01-15 04:11:00,33.3,26.3,30.24,NE,38,4.6,4.6,75,0.00,BKN,,0.00,WeatherDisplay:10.37,2013-01-15 09:11:00,
2013-01-15 04:16:00,33.3,26.3,30.25,NE,55,6.9,6.9,75,0.00,BKN,,0.00,WeatherDisplay:10.37,2013-01-15 09:16:00,
2013-01-15 04:21:00,33.5,26.5,30.24,NNW,342,3.5,3.5,75,0.00,BKN,,0.00,WeatherDisplay:10.37,2013-01-15 09:21:00,
2013-01-15 04:26:00,33.2,26.5,30.24,West,278,5.8,5.8,76,0.00,BKN,,0.00,WeatherDisplay:10.37,2013-01-15 09:26:00,
2013-01-15 04:31:00,33.4,26.4,30.25,NE,56,4.6,4.6,75,0.00,BKN,,0.00,WeatherDisplay:10.37,2013-01-15 09:31:00,
2013-01-15 04:36:00,33.5,26.5,30.25,West,278,0.0,0.0,75,0.00,BKN,,0.00,WeatherDisplay:10.37,2013-01-15 09:36:00,
2013-01-15 04:41:00,33.4,26.0,30.24,NNE,25,4.6,4.6,74,0.00,BKN,,0.00,WeatherDisplay:10.37,2013-01-15 09:41:00,
2013-01-15 04:46:00,33.2,25.8,30.25,NNE,18,0.0,0.0,74,0.00,BKN,,0.00,WeatherDisplay:10.37,2013-01-15 09:46:00,
2013-01-15 04:51:00,33.2,25.8,30.24,NNE,17,4.6,4.6,74,0.00,BKN,,0.00,WeatherDisplay:10.37,2013-01-15 09:51:00,
2013-01-15 04:56:00,33.3,25.9,30.24,NE,37,5.8,5.8,74,0.00,BKN,,0.00,WeatherDisplay:10.37,2013-01-15 09:56:00,
2013-01-15 05:01:00,33.3,25.9,30.24,NE,41,5.8,5.8,74,0.00,BKN,,0.00,WeatherDisplay:10.37,2013-01-15 10:01:00,
2013-01-15 05:06:00,33.2,25.5,30.23,NE,41,9.2,9.2,73,0.00,BKN,,0.00,WeatherDisplay:10.37,2013-01-15 10:06:00,
2013-01-15 05:11:00,33.2,25.8,30.24,NE,52,2.3,2.3,74,0.00,BKN,,0.00,WeatherDisplay:10.37,2013-01-15 10:11:00,
2013-01-15 05:16:00,33.0,25.7,30.24,NE,42,4.6,4.6,74,0.00,BKN,,0.00,WeatherDisplay:10.37,2013-01-15 10:16:00,
2013-01-15 05:21:00,32.7,25.7,30.25,NNE,23,4.6,4.6,75,0.00,OVC,,0.00,WeatherDisplay:10.37,2013-01-15 10:21:00,
2013-01-15 05:26:00,32.7,25.7,30.25,NNE,23,3.5,3.5,75,0.00,OVC,,0.00,WeatherDisplay:10.37,2013-01-15 10:26:00,
2013-01-15 05:31:00,32.6,25.6,30.25,North,354,4.8,4.8,75,0.00,OVC,,0.00,WeatherDisplay:10.37,2013-01-15 10:31:00,
2013-01-15 05:36:00,32.6,25.6,30.26,North,349,4.6,4.6,75,0.00,OVC,,0.00,WeatherDisplay:10.37,2013-01-15 10:36:00,
2013-01-15 05:41:00,32.7,25.7,30.26,WNW,284,2.3,2.3,75,0.00,OVC,,0.00,WeatherDisplay:10.37,2013-01-15 10:41:00,
2013-01-15 05:46:00,32.7,25.7,30.27,NNW,347,6.0,6.0,75,0.00,OVC,,0.00,WeatherDisplay:10.37,2013-01-15 10:46:00,
2013-01-15 05:51:00,32.2,25.2,30.27,North,353,5.8,5.8,75,0.00,OVC,,0.00,WeatherDisplay:10.37,2013-01-15 10:51:00,
2013-01-15 05:56:00,32.3,25.3,30.28,NE,34,6.9,6.9,75,0.00,OVC,,0.00,WeatherDisplay:10.37,2013-01-15 10:56:00,
2013-01-15 06:01:00,32.3,25.3,30.28,North,357,4.6,4.6,75,0.00,OVC,,0.00,WeatherDisplay:10.37,2013-01-15 11:01:00,
2013-01-15 06:06:00,32.2,25.2,30.29,North,10,3.5,3.5,75,0.00,OVC,,0.00,WeatherDisplay:10.37,2013-01-15 11:06:00,
2013-01-15 06:11:00,32.0,25.0,30.29,North,360,4.6,4.6,75,0.00,OVC,,0.00,WeatherDisplay:10.37,2013-01-15 11:11:00,
2013-01-15 06:16:00,32.1,25.4,30.29,NW,323,1.1,0.0,76,0.00,OVC,,0.00,WeatherDisplay:10.37,2013-01-15 11:16:00,
2013-01-15 06:21:00,31.7,25.0,30.29,NNE,25,5.8,5.8,76,0.00,BKN,,0.00,WeatherDisplay:10.37,2013-01-15 11:21:00,
2013-01-15 06:26:00,31.8,25.1,30.29,NNW,344,3.5,3.5,76,0.00,BKN,,0.00,WeatherDisplay:10.37,2013-01-15 11:26:00,
2013-01-15 06:31:00,31.8,25.1,30.29,NE,40,4.6,4.6,76,0.00,BKN,,0.00,WeatherDisplay:10.37,2013-01-15 11:31:00,
2013-01-15 06:36:00,31.6,24.9,30.29,NNE,16,4.4,4.4,76,0.00,BKN,,0.00,WeatherDisplay:10.37,2013-01-15 11:36:00,
2013-01-15 06:41:00,31.7,25.0,30.29,NE,56,8.1,8.1,76,0.00,BKN,,0.00,WeatherDisplay:10.37,2013-01-15 11:41:00,
2013-01-15 06:47:00,31.6,24.9,30.29,ENE,72,5.8,5.8,76,0.00,BKN,,0.00,WeatherDisplay:10.37,2013-01-15 11:47:00,
2013-01-15 06:52:00,31.4,24.7,30.29,NE,34,6.9,6.9,76,0.00,BKN,,0.00,WeatherDisplay:10.37,2013-01-15 11:52:00,
2013-01-15 06:57:00,31.5,24.8,30.29,North,1,6.9,6.9,76,0.00,BKN,,0.00,WeatherDisplay:10.37,2013-01-15 11:57:00,
2013-01-15 07:02:00,31.3,24.6,30.29,NNE,20,6.9,6.9,76,0.00,BKN,,0.00,WeatherDisplay:10.37,2013-01-15 12:02:00,
2013-01-15 07:07:00,31.4,25.1,30.30,NNE,14,6.1,6.1,77,0.00,CLR,,0.00,WeatherDisplay:10.37,2013-01-15 12:07:00,
2013-01-15 07:13:00,31.1,24.8,30.29,North,349,6.5,6.5,77,0.00,CLR,,0.00,WeatherDisplay:10.37,2013-01-15 12:13:00,
2013-01-15 07:18:00,31.1,24.8,30.29,North,4,8.1,8.1,77,0.00,CLR,,0.00,WeatherDisplay:10.37,2013-01-15 12:18:00,
2013-01-15 07:23:00,31.1,24.8,30.29,NNE,16,5.7,5.7,77,0.00,CLR,,0.00,WeatherDisplay:10.37,2013-01-15 12:23:00,
2013-01-15 07:28:00,31.1,24.8,30.29,NNW,339,4.6,4.6,77,0.00,CLR,,0.00,WeatherDisplay:10.37,2013-01-15 12:28:00,
2013-01-15 07:33:00,31.0,24.7,30.29,NE,34,5.8,5.8,77,0.00,CLR,,0.00,WeatherDisplay:10.37,2013-01-15 12:33:00,
2013-01-15 07:38:00,31.0,25.0,30.30,WSW,243,2.3,2.3,78,0.00,CLR,,0.00,WeatherDisplay:10.37,2013-01-15 12:38:00,
2013-01-15 07:43:00,30.9,24.9,30.30,East,89,0.0,0.0,78,0.00,CLR,,0.00,WeatherDisplay:10.37,2013-01-15 12:43:00,
2013-01-15 07:48:00,31.0,25.0,30.30,North,359,4.6,4.6,78,0.00,CLR,,0.00,WeatherDisplay:10.37,2013-01-15 12:48:00,
2013-01-15 07:53:00,31.0,25.0,30.30,WNW,288,0.0,0.0,78,0.00,CLR,,0.00,WeatherDisplay:10.37,2013-01-15 12:53:00,
2013-01-15 07:58:00,30.8,24.8,30.31,NW,312,3.5,3.9,78,0.00,CLR,,0.00,WeatherDisplay:10.37,2013-01-15 12:58:00,
2013-01-15 08:03:00,30.8,25.1,30.31,WSW,247,3.5,3.5,79,0.00,CLR,,0.00,WeatherDisplay:10.37,2013-01-15 13:03:00,
2013-01-15 08:08:00,30.6,24.9,30.31,NW,306,4.6,4.6,79,0.00,CLR,,0.00,WeatherDisplay:10.37,2013-01-15 13:08:00,
2013-01-15 08:13:00,30.7,25.0,30.31,NW,309,2.3,2.3,79,0.00,CLR,,0.00,WeatherDisplay:10.37,2013-01-15 13:13:00,
2013-01-15 08:18:00,30.9,24.9,30.32,WNW,288,3.5,3.5,78,0.00,CLR,,0.00,WeatherDisplay:10.37,2013-01-15 13:18:00,
2013-01-15 08:23:00,30.9,24.9,30.32,NW,311,1.1,1.1,78,0.00,CLR,,0.00,WeatherDisplay:10.37,2013-01-15 13:23:00,
2013-01-15 08:28:00,30.9,25.2,30.32,WNW,296,0.0,0.0,79,0.00,CLR,,0.00,WeatherDisplay:10.37,2013-01-15 13:28:00,
2013-01-15 08:33:00,30.9,25.2,30.33,WNW,296,0.0,0.0,79,0.00,CLR,,0.00,WeatherDisplay:10.37,2013-01-15 13:33:00,
2013-01-15 08:38:00,30.9,25.2,30.34,WNW,296,0.0,0.0,79,0.00,CLR,,0.00,WeatherDisplay:10.37,2013-01-15 13:38:00,
2013-01-15 08:43:00,30.8,25.4,30.33,WNW,296,0.7,1.1,80,0.00,CLR,,0.00,WeatherDisplay:10.37,2013-01-15 13:43:00,
2013-01-15 08:48:00,31.0,25.3,30.33,South,175,0.0,0.0,79,0.00,CLR,,0.00,WeatherDisplay:10.37,2013-01-15 13:48:00,
2013-01-15 08:54:00,31.2,25.8,30.33,South,175,0.0,0.0,80,0.00,CLR,,0.00,WeatherDisplay:10.37,2013-01-15 13:54:00,
2013-01-15 08:59:00,31.3,25.6,30.33,NE,47,1.2,1.2,79,0.00,CLR,,0.00,WeatherDisplay:10.37,2013-01-15 13:59:00,
2013-01-15 09:04:00,32.0,26.3,30.32,North,3,4.6,4.6,79,0.00,BKN,,0.00,WeatherDisplay:10.37,2013-01-15 14:04:00,
2013-01-15 09:09:00,32.0,26.0,30.32,NE,38,0.0,0.0,78,0.00,BKN,,0.00,WeatherDisplay:10.37,2013-01-15 14:09:00,
2013-01-15 09:14:00,32.3,25.9,30.33,NE,35,3.5,3.5,77,0.00,BKN,,0.00,WeatherDisplay:10.37,2013-01-15 14:14:00,
2013-01-15 09:19:00,32.6,25.9,30.33,NE,42,5.8,5.8,76,0.00,BKN,,0.00,WeatherDisplay:10.37,2013-01-15 14:19:00,
2013-01-15 09:24:00,32.5,25.5,30.33,NE,48,5.8,5.8,75,0.00,BKN,,0.00,WeatherDisplay:10.37,2013-01-15 14:24:00,
2013-01-15 09:29:00,32.8,25.5,30.33,East,88,6.9,6.9,74,0.00,BKN,,0.00,WeatherDisplay:10.37,2013-01-15 14:29:00,
2013-01-15 09:34:00,33.0,25.7,30.33,NE,56,4.6,4.6,74,0.00,BKN,,0.00,WeatherDisplay:10.37,2013-01-15 14:34:00,
2013-01-15 09:39:00,33.0,26.0,30.33,ESE,121,0.0,0.0,75,0.00,BKN,,0.00,WeatherDisplay:10.37,2013-01-15 14:39:00,
2013-01-15 09:44:00,33.4,26.4,30.33,ESE,121,0.0,0.0,75,0.00,BKN,,0.00,WeatherDisplay:10.37,2013-01-15 14:44:00,
2013-01-15 09:49:00,33.4,26.0,30.32,North,349,4.6,4.6,74,0.00,BKN,,0.00,WeatherDisplay:10.37,2013-01-15 14:49:00,
2013-01-15 09:54:00,33.7,26.3,30.32,NE,45,0.0,0.0,74,0.00,BKN,,0.00,WeatherDisplay:10.37,2013-01-15 14:54:00,
2013-01-15 09:59:00,33.5,25.5,30.32,NE,41,5.8,5.8,72,0.00,BKN,,0.00,WeatherDisplay:10.37,2013-01-15 14:59:00,
2013-01-15 10:04:00,33.6,25.6,30.31,NE,35,5.8,5.8,72,0.00,BKN,,0.00,WeatherDisplay:10.37,2013-01-15 15:04:00,
2013-01-15 10:09:00,33.5,25.5,30.31,ENE,58,4.6,4.6,72,0.00,BKN,,0.00,WeatherDisplay:10.37,2013-01-15 15:09:00,
2013-01-15 10:14:00,33.5,25.1,30.31,NNE,30,6.9,6.9,71,0.00,BKN,,0.00,WeatherDisplay:10.37,2013-01-15 15:14:00,
2013-01-15 10:19:00,33.5,25.5,30.31,NE,45,4.6,4.6,72,0.00,BKN,,0.00,WeatherDisplay:10.37,2013-01-15 15:19:00,
2013-01-15 10:24:00,33.5,25.5,30.31,NE,35,6.9,6.9,72,0.00,BKN,,0.00,WeatherDisplay:10.37,2013-01-15 15:24:00,
2013-01-15 10:29:00,33.7,25.3,30.31,NNE,23,3.5,3.5,71,0.00,BKN,,0.00,WeatherDisplay:10.37,2013-01-15 15:29:00,
2013-01-15 10:34:00,33.6,25.6,30.31,North,7,3.5,0.0,72,0.00,BKN,,0.00,WeatherDisplay:10.37,2013-01-15 15:34:00,
2013-01-15 10:39:00,33.7,25.7,30.31,North,7,0.0,0.0,72,0.00,BKN,,0.00,WeatherDisplay:10.37,2013-01-15 15:39:00,
2013-01-15 10:44:00,33.7,25.7,30.31,NE,48,4.6,4.6,72,0.00,BKN,,0.00,WeatherDisplay:10.37,2013-01-15 15:44:00,
2013-01-15 10:49:00,33.8,25.8,30.30,NE,54,2.3,2.3,72,0.00,BKN,,0.00,WeatherDisplay:10.37,2013-01-15 15:49:00,
2013-01-15 10:54:00,33.9,25.9,30.30,North,7,3.8,3.8,72,0.00,BKN,,0.00,WeatherDisplay:10.37,2013-01-15 15:54:00,
2013-01-15 10:59:00,33.9,25.9,30.30,NNW,342,3.1,3.1,72,0.00,BKN,,0.00,WeatherDisplay:10.37,2013-01-15 15:59:00,
2013-01-15 11:04:00,33.7,25.0,30.31,NE,45,4.6,4.6,70,0.00,BKN,,0.00,WeatherDisplay:10.37,2013-01-15 16:04:00,
2013-01-15 11:09:00,34.0,25.6,30.30,NE,51,0.0,0.0,71,0.00,BKN,,0.00,WeatherDisplay:10.37,2013-01-15 16:09:00,
2013-01-15 11:14:00,34.1,26.1,30.30,ENE,58,2.7,2.7,72,0.00,BKN,,0.00,WeatherDisplay:10.37,2013-01-15 16:14:00,
2013-01-15 11:19:00,34.3,25.9,30.30,NNE,27,3.5,3.5,71,0.00,BKN,,0.00,WeatherDisplay:10.37,2013-01-15 16:19:00,
2013-01-15 11:24:00,34.4,25.7,30.29,NNE,31,5.8,5.8,70,0.00,BKN,,0.00,WeatherDisplay:10.37,2013-01-15 16:24:00,
2013-01-15 11:29:00,34.5,25.8,30.30,NNE,31,4.6,4.6,70,0.00,BKN,,0.00,WeatherDisplay:10.37,2013-01-15 16:29:00,
2013-01-15 11:34:00,34.6,25.9,30.30,WNW,299,3.5,0.0,70,0.00,BKN,,0.00,WeatherDisplay:10.37,2013-01-15 16:34:00,
2013-01-15 11:39:00,34.6,25.5,30.30,WNW,295,4.6,4.6,69,0.00,BKN,,0.00,WeatherDisplay:10.37,2013-01-15 16:39:00,
2013-01-15 11:44:00,34.8,26.0,30.30,WNW,295,0.0,0.0,70,0.00,BKN,,0.00,WeatherDisplay:10.37,2013-01-15 16:44:00,
2013-01-15 11:49:00,35.1,26.3,30.29,NNE,20,1.1,1.1,70,0.00,BKN,,0.00,WeatherDisplay:10.37,2013-01-15 16:49:00,
2013-01-15 11:54:00,35.0,25.9,30.29,NE,45,0.0,0.5,69,0.00,BKN,,0.00,WeatherDisplay:10.37,2013-01-15 16:54:00,
2013-01-15 11:59:00,35.3,26.2,30.29,NE,42,3.5,3.5,69,0.00,BKN,,0.00,WeatherDisplay:10.37,2013-01-15 16:59:00,
2013-01-15 12:04:00,35.3,25.8,30.29,NNE,14,5.8,5.8,68,0.00,BKN,,0.00,WeatherDisplay:10.37,2013-01-15 17:04:00,
2013-01-15 12:10:00,35.2,25.7,30.28,NE,38,0.0,0.0,68,0.00,BKN,,0.00,WeatherDisplay:10.37,2013-01-15 17:10:00,
2013-01-15 12:15:00,35.0,25.9,30.27,NW,305,5.8,5.8,69,0.00,BKN,,0.00,WeatherDisplay:10.37,2013-01-15 17:15:00,
2013-01-15 12:20:00,35.2,25.7,30.27,North,350,2.3,0.0,68,0.00,BKN,,0.00,WeatherDisplay:10.37,2013-01-15 17:20:00,
2013-01-15 12:25:00,35.3,26.2,30.26,North,353,2.3,2.3,69,0.00,BKN,,0.00,WeatherDisplay:10.37,2013-01-15 17:25:00,
2013-01-15 12:30:00,35.4,26.3,30.27,WNW,291,5.8,5.8,69,0.00,BKN,,0.00,WeatherDisplay:10.37,2013-01-15 17:30:00,
2013-01-15 12:35:00,35.3,26.2,30.27,North,0,3.5,3.5,69,0.00,BKN,,0.00,WeatherDisplay:10.37,2013-01-15 17:35:00,
2013-01-15 12:40:00,35.2,25.7,30.27,NW,325,6.9,6.9,68,0.00,BKN,,0.00,WeatherDisplay:10.37,2013-01-15 17:40:00,
2013-01-15 12:45:00,35.4,26.6,30.26,NNE,18,0.0,0.0,70,0.00,BKN,,0.00,WeatherDisplay:10.37,2013-01-15 17:45:00,
2013-01-15 12:50:00,35.6,26.8,30.26,NNW,343,1.1,1.1,70,0.00,BKN,,0.00,WeatherDisplay:10.37,2013-01-15 17:50:00,
2013-01-15 12:55:00,35.7,26.6,30.26,North,357,3.5,3.5,69,0.00,BKN,,0.00,WeatherDisplay:10.37,2013-01-15 17:55:00,
2013-01-15 13:00:00,35.8,26.3,30.25,North,356,2.3,2.3,68,0.00,BKN,,0.00,WeatherDisplay:10.37,2013-01-15 18:00:00,
2013-01-15 13:05:00,35.9,26.4,30.25,NE,48,3.5,3.5,68,0.00,BKN,,0.00,WeatherDisplay:10.37,2013-01-15 18:05:00,
2013-01-15 13:10:00,35.9,26.4,30.25,North,11,3.6,3.6,68,0.00,BKN,,0.00,WeatherDisplay:10.37,2013-01-15 18:10:00,
2013-01-15 13:15:00,35.9,26.0,30.25,NE,44,4.6,4.6,67,0.00,BKN,,0.00,WeatherDisplay:10.37,2013-01-15 18:15:00,
2013-01-15 13:20:00,35.8,26.3,30.25,ENE,59,4.6,4.6,68,0.00,FEW,,0.00,WeatherDisplay:10.37,2013-01-15 18:20:00,
2013-01-15 13:25:00,35.9,26.4,30.25,ENE,69,6.9,6.9,68,0.00,FEW,,0.00,WeatherDisplay:10.37,2013-01-15 18:25:00,
2013-01-15 13:30:00,36.2,26.7,30.26,NNE,27,5.2,5.2,68,0.00,FEW,,0.00,WeatherDisplay:10.37,2013-01-15 18:30:00,
2013-01-15 13:35:00,36.3,26.4,30.25,NNE,18,5.8,5.8,67,0.00,FEW,,0.00,WeatherDisplay:10.37,2013-01-15 18:35:00,
2013-01-15 13:40:00,36.3,26.4,30.25,NE,34,3.5,3.5,67,0.00,FEW,,0.00,WeatherDisplay:10.37,2013-01-15 18:40:00,
2013-01-15 13:45:00,36.3,26.8,30.24,East,99,0.0,0.0,68,0.00,FEW,,0.00,WeatherDisplay:10.37,2013-01-15 18:45:00,
2013-01-15 13:50:00,36.1,26.2,30.24,ENE,71,8.1,8.1,67,0.00,FEW,,0.00,WeatherDisplay:10.37,2013-01-15 18:50:00,
2013-01-15 13:55:00,36.0,25.8,30.24,NE,51,4.6,4.6,66,0.00,FEW,,0.00,WeatherDisplay:10.37,2013-01-15 18:55:00,
2013-01-15 14:00:00,36.0,26.5,30.24,North,10,0.0,0.1,68,0.00,FEW,,0.00,WeatherDisplay:10.37,2013-01-15 19:00:00,
2013-01-15 14:05:00,36.1,25.9,30.24,NNE,31,6.9,6.9,66,0.00,FEW,,0.00,WeatherDisplay:10.37,2013-01-15 19:05:00,
2013-01-15 14:10:00,36.3,26.8,30.25,ENE,72,2.4,2.4,68,0.00,FEW,,0.00,WeatherDisplay:10.37,2013-01-15 19:10:00,
2013-01-15 14:15:00,36.0,25.8,30.25,ENE,71,4.6,4.6,66,0.00,FEW,,0.00,WeatherDisplay:10.37,2013-01-15 19:15:00,
2013-01-15 14:20:00,36.0,25.8,30.25,NE,34,6.9,6.9,66,0.00,CLR,,0.00,WeatherDisplay:10.37,2013-01-15 19:20:00,
2013-01-15 14:25:00,36.1,25.9,30.25,North,7,1.1,0.0,66,0.00,CLR,,0.00,WeatherDisplay:10.37,2013-01-15 19:25:00,
2013-01-15 14:30:00,36.0,25.4,30.25,North,10,6.9,6.9,65,0.00,CLR,,0.00,WeatherDisplay:10.37,2013-01-15 19:30:00,
2013-01-15 14:35:00,36.1,25.9,30.25,North,7,0.0,0.0,66,0.00,CLR,,0.00,WeatherDisplay:10.37,2013-01-15 19:35:00,
2013-01-15 14:40:00,36.0,25.4,30.24,North,11,4.6,4.6,65,0.00,CLR,,0.00,WeatherDisplay:10.37,2013-01-15 19:40:00,
2013-01-15 14:45:00,36.1,25.5,30.25,North,360,4.6,4.6,65,0.00,CLR,,0.00,WeatherDisplay:10.37,2013-01-15 19:45:00,
2013-01-15 14:50:00,35.7,25.1,30.25,NE,56,6.9,6.9,65,0.00,CLR,,0.00,WeatherDisplay:10.37,2013-01-15 19:50:00,
2013-01-15 14:55:00,35.9,25.3,30.24,NNE,18,3.5,3.5,65,0.00,CLR,,0.00,WeatherDisplay:10.37,2013-01-15 19:55:00,
2013-01-15 15:00:00,35.8,25.6,30.24,ENE,66,3.5,3.5,66,0.00,CLR,,0.00,WeatherDisplay:10.37,2013-01-15 20:00:00,
2013-01-15 15:05:00,35.7,25.1,30.23,NNE,30,4.6,4.6,65,0.00,CLR,,0.00,WeatherDisplay:10.37,2013-01-15 20:05:00,
2013-01-15 15:10:00,35.7,25.1,30.23,NNE,31,4.6,4.6,65,0.00,CLR,,0.00,WeatherDisplay:10.37,2013-01-15 20:10:00,
2013-01-15 15:15:00,35.6,25.4,30.24,NE,56,1.1,1.1,66,0.00,CLR,,0.00,WeatherDisplay:10.37,2013-01-15 20:15:00,
2013-01-15 15:20:00,35.8,25.2,30.24,NE,42,4.0,4.0,65,0.00,FEW,,0.00,WeatherDisplay:10.37,2013-01-15 20:20:00,
2013-01-15 15:25:00,35.7,25.5,30.24,NE,49,3.5,3.5,66,0.00,FEW,,0.00,WeatherDisplay:10.37,2013-01-15 20:25:00,
2013-01-15 15:30:00,35.8,25.6,30.24,NE,44,3.5,3.5,66,0.00,FEW,,0.00,WeatherDisplay:10.37,2013-01-15 20:30:00,
2013-01-15 15:35:00,35.7,25.5,30.24,NE,35,4.6,4.6,66,0.00,FEW,,0.00,WeatherDisplay:10.37,2013-01-15 20:35:00,
2013-01-15 15:40:00,35.7,25.9,30.25,NE,40,0.0,0.0,67,0.00,FEW,,0.00,WeatherDisplay:10.37,2013-01-15 20:40:00,
2013-01-15 15:45:00,35.7,25.5,30.25,North,3,1.1,0.0,66,0.00,FEW,,0.00,WeatherDisplay:10.37,2013-01-15 20:45:00,
2013-01-15 15:50:00,35.6,25.4,30.25,NW,323,0.0,0.0,66,0.00,FEW,,0.00,WeatherDisplay:10.37,2013-01-15 20:50:00,
2013-01-15 15:55:00,35.7,25.5,30.26,NE,44,1.1,1.1,66,0.00,FEW,,0.00,WeatherDisplay:10.37,2013-01-15 20:55:00,
2013-01-15 16:00:00,35.7,25.5,30.26,NE,38,0.0,0.0,66,0.00,FEW,,0.00,WeatherDisplay:10.37,2013-01-15 21:00:00,
2013-01-15 16:05:00,35.6,25.8,30.26,NE,38,0.0,0.0,67,0.00,FEW,,0.00,WeatherDisplay:10.37,2013-01-15 21:05:00,
2013-01-15 16:10:00,35.4,25.9,30.26,NE,38,0.0,0.0,68,0.00,FEW,,0.00,WeatherDisplay:10.37,2013-01-15 21:10:00,
2013-01-15 16:15:00,35.5,25.7,30.26,NE,38,0.0,0.0,67,0.00,FEW,,0.00,WeatherDisplay:10.37,2013-01-15 21:15:00,
2013-01-15 16:20:00,35.4,25.6,30.26,NE,38,0.0,0.0,67,0.00,CLR,,0.00,WeatherDisplay:10.37,2013-01-15 21:20:00,
2013-01-15 16:25:00,35.4,25.9,30.26,NE,38,0.0,0.0,68,0.00,CLR,,0.00,WeatherDisplay:10.37,2013-01-15 21:25:00,
2013-01-15 16:30:00,35.3,25.5,30.26,NE,51,0.0,0.0,67,0.00,CLR,,0.00,WeatherDisplay:10.37,2013-01-15 21:30:00,
2013-01-15 16:35:00,35.2,25.4,30.26,NNE,28,0.0,0.0,67,0.00,CLR,,0.00,WeatherDisplay:10.37,2013-01-15 21:35:00,
2013-01-15 16:40:00,34.7,24.9,30.26,NNE,28,0.0,0.0,67,0.00,CLR,,0.00,WeatherDisplay:10.37,2013-01-15 21:40:00,
2013-01-15 16:45:00,34.9,25.1,30.26,NE,34,1.8,1.8,67,0.00,CLR,,0.00,WeatherDisplay:10.37,2013-01-15 21:45:00,
2013-01-15 16:50:00,34.7,24.9,30.26,NE,42,4.6,4.6,67,0.00,CLR,,0.00,WeatherDisplay:10.37,2013-01-15 21:50:00,
2013-01-15 16:55:00,34.4,24.6,30.26,NNE,20,0.0,0.0,67,0.00,CLR,,0.00,WeatherDisplay:10.37,2013-01-15 21:55:00,
2013-01-15 17:00:00,34.5,24.7,30.26,NE,49,0.0,0.0,67,0.00,CLR,,0.00,WeatherDisplay:10.37,2013-01-15 22:00:00,
2013-01-15 17:05:00,34.4,25.0,30.26,NE,49,0.0,0.0,68,0.00,CLR,,0.00,WeatherDisplay:10.37,2013-01-15 22:05:00,
2013-01-15 17:10:00,34.4,25.0,30.27,NE,49,0.0,0.0,68,0.00,CLR,,0.00,WeatherDisplay:10.37,2013-01-15 22:10:00,
2013-01-15 17:15:00,34.5,25.1,30.26,NE,49,0.0,0.0,68,0.00,CLR,,0.00,WeatherDisplay:10.37,2013-01-15 22:15:00,
2013-01-15 17:20:00,34.3,24.9,30.26,NE,49,0.0,0.0,68,0.00,OVC,,0.00,WeatherDisplay:10.37,2013-01-15 22:20:00,
2013-01-15 17:25:00,34.5,25.1,30.26,NE,49,0.0,0.0,68,0.00,OVC,,0.00,WeatherDisplay:10.37,2013-01-15 22:25:00,
2013-01-15 17:30:00,34.4,25.0,30.26,NE,49,0.0,0.0,68,0.00,OVC,,0.00,WeatherDisplay:10.37,2013-01-15 22:30:00,
2013-01-15 17:36:00,34.2,24.8,30.25,NE,49,0.0,0.0,68,0.00,OVC,,0.00,WeatherDisplay:10.37,2013-01-15 22:36:00,
2013-01-15 17:41:00,34.2,24.8,30.25,NE,49,0.0,0.0,68,0.00,OVC,,0.00,WeatherDisplay:10.37,2013-01-15 22:41:00,
2013-01-15 17:46:00,33.9,24.5,30.26,NE,49,0.0,0.0,68,0.00,OVC,,0.00,WeatherDisplay:10.37,2013-01-15 22:46:00,
2013-01-15 17:51:00,33.8,25.1,30.26,NE,49,0.0,0.0,70,0.00,OVC,,0.00,WeatherDisplay:10.37,2013-01-15 22:51:00,
2013-01-15 17:57:00,33.6,24.5,30.26,NE,49,0.0,0.0,69,0.00,OVC,,0.00,WeatherDisplay:10.37,2013-01-15 22:57:00,
2013-01-15 18:02:00,33.4,25.0,30.26,ENE,59,0.0,0.0,71,0.00,OVC,,0.00,WeatherDisplay:10.37,2013-01-15 23:02:00,
2013-01-15 18:07:00,33.3,25.3,30.26,ENE,66,2.3,2.3,72,0.00,OVC,,0.00,WeatherDisplay:10.37,2013-01-15 23:07:00,
2013-01-15 18:12:00,33.3,25.3,30.26,ENE,66,0.0,0.0,72,0.00,OVC,,0.00,WeatherDisplay:10.37,2013-01-15 23:12:00,
2013-01-15 18:17:00,33.2,25.2,30.26,ENE,66,0.0,0.0,72,0.00,BKN,,0.00,WeatherDisplay:10.37,2013-01-15 23:17:00,
2013-01-15 18:22:00,33.3,24.9,30.26,ENE,66,0.0,0.0,71,0.00,BKN,,0.00,WeatherDisplay:10.37,2013-01-15 23:22:00,
2013-01-15 18:27:00,33.6,25.2,30.26,ENE,66,0.0,0.0,71,0.00,BKN,,0.00,WeatherDisplay:10.37,2013-01-15 23:27:00,
2013-01-15 18:32:00,33.5,25.1,30.26,ENE,66,0.0,0.0,71,0.00,BKN,,0.00,WeatherDisplay:10.37,2013-01-15 23:32:00,
2013-01-15 18:37:00,33.4,25.0,30.26,ENE,59,1.1,1.1,71,0.00,BKN,,0.00,WeatherDisplay:10.37,2013-01-15 23:37:00,
2013-01-15 18:42:00,33.5,24.8,30.26,ENE,59,0.0,0.0,70,0.00,BKN,,0.00,WeatherDisplay:10.37,2013-01-15 23:42:00,
2013-01-15 18:47:00,33.8,25.4,30.27,ENE,59,0.0,0.0,71,0.00,BKN,,0.00,WeatherDisplay:10.37,2013-01-15 23:47:00,
2013-01-15 18:52:00,33.8,25.8,30.28,ENE,59,0.0,0.0,72,0.00,BKN,,0.00,WeatherDisplay:10.37,2013-01-15 23:52:00,
2013-01-15 18:57:00,33.7,25.3,30.27,ENE,59,0.0,0.0,71,0.00,BKN,,0.00,WeatherDisplay:10.37,2013-01-15 23:57:00,
2013-01-15 19:02:00,33.8,25.4,30.27,ENE,58,1.4,1.4,71,0.00,BKN,,0.00,WeatherDisplay:10.37,2013-01-16 00:02:00,
2013-01-15 19:07:00,33.9,25.5,30.26,NE,51,0.0,0.0,71,0.00,BKN,,0.00,WeatherDisplay:10.37,2013-01-16 00:07:00,
2013-01-15 19:12:00,33.5,25.1,30.26,NE,51,0.0,0.0,71,0.00,BKN,,0.00,WeatherDisplay:10.37,2013-01-16 00:12:00,
2013-01-15 19:17:00,33.6,25.2,30.26,NNW,347,3.8,3.8,71,0.00,BKN,,0.00,WeatherDisplay:10.37,2013-01-16 00:17:00,
2013-01-15 19:22:00,33.5,25.1,30.26,NNW,335,1.1,1.1,71,0.00,BKN,,0.00,WeatherDisplay:10.37,2013-01-16 00:22:00,
2013-01-15 19:27:00,33.5,25.1,30.26,NNW,335,0.0,0.0,71,0.00,BKN,,0.00,WeatherDisplay:10.37,2013-01-16 00:27:00,
2013-01-15 19:32:00,33.5,25.1,30.26,NNW,335,0.0,0.0,71,0.00,OVC,,0.00,WeatherDisplay:10.37,2013-01-16 00:32:00,
2013-01-15 19:37:00,33.6,25.2,30.26,NNW,335,0.0,0.0,71,0.00,OVC,,0.00,WeatherDisplay:10.37,2013-01-16 00:37:00,
2013-01-15 19:42:00,33.5,25.1,30.26,NNW,335,0.0,0.0,71,0.00,OVC,,0.00,WeatherDisplay:10.37,2013-01-16 00:42:00,
2013-01-15 19:47:00,33.8,25.4,30.26,NNE,32,3.5,3.5,71,0.00,OVC,,0.00,WeatherDisplay:10.37,2013-01-16 00:47:00,
2013-01-15 19:52:00,33.5,25.1,30.25,NNE,21,2.6,2.6,71,0.00,OVC,,0.00,WeatherDisplay:10.37,2013-01-16 00:52:00,
2013-01-15 19:57:00,33.8,25.4,30.25,North,353,2.3,2.3,71,0.00,OVC,,0.00,WeatherDisplay:10.37,2013-01-16 00:57:00,
2013-01-15 20:02:00,33.6,25.2,30.24,North,353,0.0,0.0,71,0.00,OVC,,0.00,WeatherDisplay:10.37,2013-01-16 01:02:00,
2013-01-15 20:07:00,33.7,25.3,30.24,NNE,30,1.1,0.0,71,0.00,OVC,,0.00,WeatherDisplay:10.37,2013-01-16 01:07:00,
2013-01-15 20:12:00,33.7,25.0,30.24,NNE,13,3.5,3.5,70,0.00,OVC,,0.00,WeatherDisplay:10.37,2013-01-16 01:12:00,
2013-01-15 20:17:00,33.4,25.0,30.24,NE,45,1.5,0.0,71,0.00,OVC,,0.00,WeatherDisplay:10.37,2013-01-16 01:17:00,
2013-01-15 20:22:00,33.5,25.1,30.25,NNW,335,3.5,3.5,71,0.00,OVC,,0.00,WeatherDisplay:10.37,2013-01-16 01:22:00,
2013-01-15 20:27:00,33.4,25.4,30.25,North,1,0.0,0.0,72,0.00,OVC,,0.00,WeatherDisplay:10.37,2013-01-16 01:27:00,
2013-01-15 20:32:00,33.4,25.0,30.24,North,10,1.8,1.8,71,0.00,OVC,,0.00,WeatherDisplay:10.37,2013-01-16 01:32:00,
2013-01-15 20:37:00,33.4,25.0,30.24,North,10,3.5,3.5,71,0.00,OVC,,0.00,WeatherDisplay:10.37,2013-01-16 01:37:00,
2013-01-15 20:42:00,33.3,25.3,30.25,NNE,28,0.0,0.0,72,0.00,OVC,,0.00,WeatherDisplay:10.37,2013-01-16 01:42:00,
2013-01-15 20:47:00,33.4,25.4,30.25,NNE,28,0.0,0.0,72,0.00,OVC,,0.00,WeatherDisplay:10.37,2013-01-16 01:47:00,
2013-01-15 20:52:00,33.3,24.9,30.25,NNW,332,3.5,3.5,71,0.00,OVC,,0.00,WeatherDisplay:10.37,2013-01-16 01:52:00,
2013-01-15 20:57:00,33.3,25.3,30.25,NNW,339,1.1,0.0,72,0.00,OVC,,0.00,WeatherDisplay:10.37,2013-01-16 01:57:00,
2013-01-15 21:02:00,33.2,25.2,30.25,NNW,339,0.0,0.0,72,0.00,OVC,,0.00,WeatherDisplay:10.37,2013-01-16 02:02:00,
2013-01-15 21:07:00,33.3,25.3,30.25,NNE,32,1.6,1.6,72,0.00,OVC,,0.00,WeatherDisplay:10.37,2013-01-16 02:07:00,
2013-01-15 21:12:00,33.3,25.3,30.24,NE,37,0.0,0.0,72,0.00,OVC,,0.00,WeatherDisplay:10.37,2013-01-16 02:12:00,
2013-01-15 21:17:00,33.3,25.3,30.24,NE,37,0.0,0.0,72,0.00,OVC,,0.00,WeatherDisplay:10.37,2013-01-16 02:17:00,
2013-01-15 21:22:00,33.4,25.7,30.24,NE,37,0.0,0.0,73,0.00,OVC,,0.00,WeatherDisplay:10.37,2013-01-16 02:22:00,
2013-01-15 21:27:00,33.3,25.9,30.23,NE,37,0.0,0.0,74,0.00,OVC,,0.00,WeatherDisplay:10.37,2013-01-16 02:27:00,
2013-01-15 21:32:00,33.4,26.0,30.24,NE,37,0.0,0.0,74,0.00,OVC,,0.00,WeatherDisplay:10.37,2013-01-16 02:32:00,
2013-01-15 21:37:00,33.1,25.8,30.24,NE,37,0.0,0.0,74,0.00,OVC,,0.00,WeatherDisplay:10.37,2013-01-16 02:37:00,
2013-01-15 21:42:00,33.1,25.8,30.24,NE,37,0.0,0.0,74,0.00,OVC,,0.00,WeatherDisplay:10.37,2013-01-16 02:42:00,
2013-01-15 21:47:00,33.2,25.8,30.24,NE,37,0.0,0.0,74,0.00,OVC,,0.00,WeatherDisplay:10.37,2013-01-16 02:47:00,
2013-01-15 21:52:00,33.0,26.0,30.23,NE,37,0.0,0.0,75,0.00,OVC,,0.00,WeatherDisplay:10.37,2013-01-16 02:52:00,
2013-01-15 21:57:00,33.2,25.8,30.23,NE,37,0.0,0.0,74,0.00,OVC,,0.00,WeatherDisplay:10.37,2013-01-16 02:57:00,
2013-01-15 22:02:00,33.0,25.7,30.22,NE,37,0.0,0.0,74,0.00,OVC,,0.00,WeatherDisplay:10.37,2013-01-16 03:02:00,
2013-01-15 22:07:00,32.8,25.5,30.22,NE,37,0.0,0.0,74,0.00,OVC,,0.00,WeatherDisplay:10.37,2013-01-16 03:07:00,
2013-01-15 22:12:00,33.0,25.3,30.22,NE,37,0.0,0.0,73,0.00,OVC,,0.00,WeatherDisplay:10.37,2013-01-16 03:12:00,
2013-01-15 22:17:00,33.3,25.9,30.22,NE,37,0.0,0.0,74,0.00,OVC,,0.00,WeatherDisplay:10.37,2013-01-16 03:17:00,
2013-01-15 22:22:00,33.0,25.0,30.22,NE,37,0.0,0.0,72,0.00,OVC,,0.00,WeatherDisplay:10.37,2013-01-16 03:22:00,
2013-01-15 22:27:00,33.2,25.8,30.22,NE,37,0.0,0.0,74,0.00,OVC,,0.00,WeatherDisplay:10.37,2013-01-16 03:27:00,
2013-01-15 22:32:00,32.8,25.1,30.22,NE,51,2.3,2.3,73,0.00,OVC,,0.00,WeatherDisplay:10.37,2013-01-16 03:32:00,
2013-01-15 22:37:00,33.0,25.3,30.22,NNE,32,0.0,0.0,73,0.00,OVC,,0.00,WeatherDisplay:10.37,2013-01-16 03:37:00,
2013-01-15 22:42:00,33.1,25.1,30.22,NNE,32,0.0,0.0,72,0.00,OVC,,0.00,WeatherDisplay:10.37,2013-01-16 03:42:00,
2013-01-15 22:47:00,32.9,25.2,30.23,NNE,32,0.0,0.0,73,0.00,OVC,,0.00,WeatherDisplay:10.37,2013-01-16 03:47:00,
2013-01-15 22:52:00,32.8,25.1,30.23,NNE,32,0.0,0.0,73,0.00,OVC,,0.00,WeatherDisplay:10.37,2013-01-16 03:52:00,
2013-01-15 22:57:00,33.1,25.4,30.23,NNE,32,0.0,0.0,73,0.00,OVC,,0.00,WeatherDisplay:10.37,2013-01-16 03:57:00,
2013-01-15 23:02:00,33.3,25.6,30.23,NNE,32,0.0,0.0,73,0.00,OVC,,0.00,WeatherDisplay:10.37,2013-01-16 04:02:00,
2013-01-15 23:07:00,33.0,25.3,30.24,NNE,32,0.0,0.0,73,0.00,OVC,,0.00,WeatherDisplay:10.37,2013-01-16 04:07:00,
2013-01-15 23:12:00,33.0,25.7,30.24,NNE,32,0.0,0.0,74,0.00,OVC,,0.00,WeatherDisplay:10.37,2013-01-16 04:12:00,
2013-01-15 23:18:00,33.1,25.4,30.24,NNE,32,0.0,0.0,73,0.00,OVC,,0.00,WeatherDisplay:10.37,2013-01-16 04:18:00,
2013-01-15 23:23:00,32.8,25.1,30.23,NNE,32,0.0,0.0,73,0.00,OVC,,0.00,WeatherDisplay:10.37,2013-01-16 04:23:00,
2013-01-15 23:28:00,32.8,25.5,30.22,NNE,32,0.0,0.0,74,0.00,OVC,,0.00,WeatherDisplay:10.37,2013-01-16 04:28:00,
2013-01-15 23:33:00,32.9,25.2,30.23,NNE,32,0.0,0.0,73,0.00,OVC,,0.00,WeatherDisplay:10.37,2013-01-16 04:33:00,
2013-01-15 23:38:00,32.7,24.7,30.22,NNE,30,2.3,0.0,72,0.00,OVC,,0.00,WeatherDisplay:10.37,2013-01-16 04:38:00,
2013-01-15 23:43:00,32.8,24.8,30.22,NNE,17,2.3,2.3,72,0.00,OVC,,0.00,WeatherDisplay:10.37,2013-01-16 04:43:00,
2013-01-15 23:48:00,32.7,24.7,30.22,NNE,18,0.0,0.0,72,0.00,OVC,,0.00,WeatherDisplay:10.37,2013-01-16 04:48:00,
2013-01-15 23:53:00,32.8,24.5,30.22,NE,45,3.5,3.5,71,0.00,OVC,,0.00,WeatherDisplay:10.37,2013-01-16 04:53:00,
2013-01-15 23:58:00,32.6,24.3,30.22,NE,45,2.3,0.0,71,0.00,OVC,,0.00,WeatherDisplay:10.37,2013-01-16 04:58:00,